Location: Santaluz Observatory
(32.9930°N, 117.1510°W)
Time: 09:32:20
(UTC-08:00)

Hubble Space Telescope - Visible Passes

Search period start: 06 March 2015 00:00
Search period end: 16 March 2015 01:00
Orbit: 543 x 547 km, 28.5° (Epoch: 05 March)

Date Brightness Start Highest point End Pass type
(mag) Time Alt. Az. Time Alt. Az. Time Alt. Az.
06 Mar 2.6 05:07:57 15° SW 05:09:26 18° SSW 05:12:18 10° SSE visible
07 Mar 2.8 05:00:23 14° SW 05:01:08 15° SSW 05:03:25 10° SSE visible
08 Mar 3.1 05:52:53 11° SSW 05:52:53 11° SSW 05:54:04 10° S visible
12 Mar 3.4 20:43:57 10° SSW 20:44:10 11° SSW 20:44:10 11° SSW visible
13 Mar 2.8 20:35:07 10° SSW 20:36:46 17° S 20:36:46 17° S visible
14 Mar 2.3 20:26:26 10° SW 20:29:17 23° S 20:29:17 23° S visible
15 Mar 1.9 20:17:52 10° SW 20:21:26 28° SSE 20:21:46 27° SSE visible
